HELLAS-SAT 4 & SGS-1

Last updated on Fri Oct 31 2025 00:02:49 GMT+0000 (Coordinated Universal Time)

1 44034U 19007A 25303.26371370 .00000162 00000+0 00000+0 0 9991 2 44034 0.0640 126.4516 0005632 43.1580 3.1814 1.00269890 25064
UTC large
Height (km)
Speed (km/s)
/
Latitude / Longitude
Inclination (degrees)
Orbital Period (minutes)
Azimuth
Elevation
Range (km)
Doppler Factor

Next 0 passes for location: London (51.5072 / 0.1276)

Sorry there are no passes over London.